Location: Newark
(13.8192°N, 100.4391°E)
Time: 16:21:37
(UTC+00:00)

Envisat - Visible Passes

Search period start: 15 December 2019 00:00
Search period end: 25 December 2019 00:00
Orbit: 764 x 766 km, 98.1° (Epoch: 15 December)

Date Brightness Start Highest point End Pass type
(mag) Time Alt. Az. Time Alt. Az. Time Alt. Az.
15 Dec 6.1 12:44:31 10° SW 12:46:58 14° W 12:49:26 10° WNW visible
16 Dec 4.5 12:05:31 10° SSW 12:10:11 38° W 12:14:52 10° NNW visible
16 Dec 6.0 22:51:43 10° ENE 22:54:52 16° E 22:57:59 10° SE visible
17 Dec 2.9 11:28:26 10° SSE 11:33:29 77° ENE 11:38:32 10° N visible
18 Dec 5.7 12:32:13 10° SW 12:35:41 19° W 12:39:09 10° NW visible
19 Dec 3.9 11:54:01 10° S 11:58:55 51° W 12:03:50 10° NNW visible
19 Dec 6.4 22:41:45 10° ENE 22:43:34 12° E 22:45:22 10° ESE visible
20 Dec 3.1 11:17:17 10° SSE 11:22:14 56° ENE 11:27:11 10° N visible
21 Dec 5.3 12:20:17 10° SSW 12:24:24 25° W 12:28:30 10° NW visible
21 Dec 5.6 23:04:57 10° NE 23:09:04 25° E 23:13:11 10° SSE visible
22 Dec 3.3 11:42:37 10° S 11:47:39 71° WSW 11:52:42 10° NNW visible
23 Dec 6.2 12:48:04 10° WSW 12:49:54 12° W 12:51:44 10° WNW visible
24 Dec 4.8 12:08:34 10° SSW 12:13:07 34° W 12:17:40 10° NW visible
24 Dec 6.0 22:54:19 10° NE 22:57:47 18° E 23:01:14 10° SE visible
